PulseSat

PulseSat

MOLNIYA 1-52

Last updated on Dec. 3, 2018, 12:08 a.m. UTC

1 13012U 81123A   18336.46366482  .00001115  00000-0  00000+0 0  9999
2 13012  64.0424 100.3980 7002306 249.8862  26.6305  2.00451862270703
UTC
Height (km)
Latitude
Longitude
Inclination
Orbital Period

Next 30 passes for location: Hong Kong

Rise time Rise Azimuth (degrees) Set time Set Azimuth (degrees) Duration Max altitude (degrees)

No matching passes for this satellites

PulseSat

PulseSat is the new satellites software and hardware trackering solution by Pulsely.
Satellite Two Line Element Set source: US Air Force Space Command

Download PulseSat for iOS
© 2017 Pulsely Limited